Current Version              Previous Version:    01  02  03  04  05  06  07  08  09  10  11  12  13  14  15  16  17  18  19  20  21  22  23  24  25  26  27  28  29  30  
   31  32  33  34  35  36  37  38  39  40  41  42  43  44  45  46  47  48  49  50  51  52  53  54  55  56  57  58  59  60  

[Printable]
285
ASUS44 KFWD 150503
RWRTX
NORTH TEXAS HOURLY WEATHER ROUNDUP
NATIONAL WEATHER SERVICE FORT WORTH TX
1200 AM CDT MON SEP 15 2014

NOTE: "FAIR" INDICATES FEW OR NO CLOUDS BELOW 12,000 FEET WITH NO
SIGNIFICANT WEATHER AND/OR OBSTRUCTIONS TO VISIBILITY.

TXZ118-119-150600-
DALLAS/FORT WORTH METROPLEX

CITY           SKY/WX    TMP DP  RH WIND       PRES   REMARKS
DFW AIRPORT    MOCLDY    73  63  70 CALM      30.14R
DALLAS LOVE    MOCLDY    74  64  71 SE3       30.14S
FTW MEACHAM    MOCLDY    72  64  76 SE3       30.13S
DAL-EXECUTIVE  MOCLDY    73  64  73 E3        30.13F
FTW-ALLIANCE   MOCLDY    66  62  87 S3        30.13S
FTW-NAS-JRB    MOCLDY    78  62  57 CALM      30.18S
FTW-SPINKS     CLOUDY    71  63  77 CALM      30.16S
ARLINGTON      MOCLDY    70  65  84 CALM      30.14S
GRAND PRAIRIE  MOCLDY    73  63  70 CALM      30.15S
ADDISON        PTCLDY    74  63  68 CALM      30.16S
MESQUITE       MOCLDY    70  64  80 CALM      30.14S
LANCASTER      MOCLDY    70  63  78 CALM      30.15S
$$

TXZ091>094-102>105-117-120-121-131>134-150600-
NORTH CENTRAL TEXAS

CITY           SKY/WX    TMP DP  RH WIND       PRES   REMARKS
SHRMAN/DENISON MOCLDY    71  64  77 SE3       30.16S
GAINESVILLE    MOCLDY    67  65  94 CALM      30.16S
BOWIE          MOCLDY    67  64  90 SE5       30.14F
BRIDGEPORT     CLOUDY    69  62  77 SE6       30.15F
DECATUR        MOCLDY    69  63  81 SE3       30.15S
DENTON         PTCLDY    67  63  87 CALM      30.14S
MCKINNEY       PTCLDY    69  65  86 CALM      30.14S
GREENVILLE     MOCLDY    68  63  83 CALM      30.14F
ROCKWALL       PTCLDY    70  65  82 E5        30.13S
TERRELL        MOCLDY    73  67  81 CALM      30.14F
WAXAHACHIE     MOCLDY    69  63  79 CALM      30.15F
GRANBURY       CLOUDY    74  64  70 CALM      30.15S
$$

TXZ083>090-098>101-113>116-127>130-139>142-154-155-150600-
WESTERN NORTH TEXAS

CITY           SKY/WX    TMP DP  RH WIND       PRES   REMARKS
WICHITA FALLS  CLOUDY    70  64  81 S8        30.13S
WF-KICKAPOO    CLOUDY    71  63  76 S6        30.14S
VERNON         CLOUDY    72  64  77 S7        30.13S
ABILENE        CLOUDY    74  62  66 W3        30.17R
BRECKENRIDGE   CLOUDY    75  62  63 SE8       30.13S
MINERAL WELLS  CLOUDY    71  62  73 SE8       30.13S
STEPHENVILLE   CLOUDY    72  62  71 SE5       30.18S
COMANCHE         N/A     71  63  75 SE5       30.16S
BROWNWOOD      CLOUDY    73  63  68 SE5       30.17R
COLEMAN        CLOUDY    73  62  68 E3        30.17S
BRADY          CLEAR     72  64  78 E5        30.17F
$$

TXZ143>147-156>162-174-175-150600-
CENTRAL TEXAS

CITY           SKY/WX    TMP DP  RH WIND       PRES   REMARKS
WACO           CLOUDY    70  65  84 NE3       30.13F
WACO-MCGREGOR  CLOUDY    70  59  68 CALM      30.15S
HILLSBORO      CLOUDY    72  63  72 E3        30.14F
CORSICANA      PTCLDY    73  66  78 E3        30.14F
MEXIA          PTCLDY    71  65  83 CALM      30.12F
HEARNE           N/A     71  69  93 CALM      30.12S
CAMERON        MOCLDY    72  67  85 CALM      30.12F
TEMPLE         CLOUDY    72  59  64 CALM      30.14S
KILLEEN        NOT AVBL
KILLEEN-SKYLRK CLOUDY    73  61  64 SE3       30.15R
FORT HOOD      CLOUDY    75  31  19 SE3       30.15S
HAMILTON       CLOUDY    71  63  75 SE10      30.17S
LAMPASAS       CLOUDY    72  65  80 CALM      30.16S
$$

TXZ095>097-106>112-122>126-135>138-148>153-164>167-150600-
EAST TEXAS

CITY           SKY/WX    TMP DP  RH WIND       PRES   REMARKS
PARIS          PTCLDY    70  61  73 E6        30.16S
SULPHUR SPRNGS MOCLDY    69  65  86 E5        30.17S
MOUNT PLEASANT MOCLDY    69  64  85 CALM      30.16F
MINEOLA        MOCLDY    70  66  88 CALM      30.15F
TYLER          PTCLDY    72  66  81 NE3       30.14S
LONGVIEW       PTCLDY    72  64  76 E7        30.14S
MARSHALL       CLEAR     71  66  85 CALM      30.17S
ATHENS         PTCLDY    66  64  94 CALM      30.13S
PALESTINE      CLEAR     70  67  92 CALM      30.15S
JACKSONVILLE   CLEAR     73  66  80 CALM      30.16S
HENDERSON      PTCLDY    69  67  94 CALM      30.15S
NACOGDOCHES    CLEAR     70  66  88 SE3       30.15R
LUFKIN         CLEAR     74  68  81 E3        30.13S
$$

SUPPLEMENTAL OBSERVATIONS (CENTRAL)

CITY           SKY/WX    TMP DP  RH WIND       PRES   REMARKS
$$

SUPPLEMENTAL OBSERVATIONS (WEST)

CITY           SKY/WX    TMP DP  RH WIND       PRES   REMARKS
$$

SUPPLEMENTAL OBSERVATIONS (EAST)

CITY           SKY/WX    TMP DP  RH WIND       PRES   REMARKS
$$

SUPPLEMENTAL OBSERVATIONS ARE A COLLECTION OF AUTOMATED INSTRUMENTS
THAT ARE MAINTAINED BY A VARIETY OF FEDERAL AND STATE AGENCIES.
CERTAIN ELEMENTS...SUCH AS HUMIDITY VALUES AND SUSTAINED WIND
SPEEDS...MAY BE APPROXIMATED.